Location: Allison Elementary School
(34.0784°N, 117.7317°W)
Time: 01:58:04
(UTC+00:00)

BREEZE-M DEB (TANK) - Pass Details

Date: 15 November 2019
Orbit: 426 x 13857 km, 45.9° (Epoch: 08 December)

Event Time Altitude Azimuth Distance (km) Brightness Sun altitude
Rises 02:38:31 0° 260° (W) 4,699 8.5 -23.0°
Reaches altitude 10° 02:43:07 10° 272° (W) 2,621 6.8 -23.9°
Maximum altitude 02:47:20 25° 330° (NNW) 1,127 4.1 -24.8°
Enters shadow 02:47:39 25° 340° (NNW) 1,103 3.9 -24.9°
